Location: *
(46.1833°N, 22.7667°E)
Time: 23:00:45
(UTC+00:00)

Cosmos 2227 Rocket - Pass Details

Date: 17 September 2019
Orbit: 837 x 847 km, 71.0° (Epoch: 14 October)

Event Time Altitude Azimuth Distance (km) Brightness Sun altitude
Rises 19:16:47 0° 210° (SSW) 3,382 5.3 -26.6°
Reaches altitude 10° 19:19:13 10° 212° (SSW) 2,452 4.6 -27.0°
Maximum altitude 19:24:51 75° 298° (WNW) 876 2.3 -27.7°
Drops below altitude 10° 19:30:32 10° 24° (NNE) 2,475 4.8 -28.5°
Sets 19:33:01 0° 26° (NNE) 3,415 5.5 -28.8°
